Alghero, Italy

3:04 AM CEST on April 28, 2017 (GMT +0200)
Fertilia

Weather History for LIEA - November, 2012

Change the Weather History Date:

Friday, November 30, 2012

  Actual Average Record
Temperature  
Mean Temperature 52 °F -  
Max Temperature 53 °F 56 °F 82 °F (2014)
Min Temperature 50 °F 42 °F 32 °F (2013)
Degree Days  
Heating Degree Days 14    
Growing Degree Days 2 (Base 50)    
Moisture  
Dew Point 37 °F    
Average Humidity 56    
Maximum Humidity 71    
Minimum Humidity 47    
Precipitation  
Precipitation 0.00 in 0.12 in - ()
Sea Level Pressure  
Sea Level Pressure 29.54 in    
Wind  
Wind Speed 13 mph ()    
Max Wind Speed 17 mph    
Max Gust Speed 33 mph    
Visibility 6.2 miles    
Events      
Averages and records for this station are not official NWS values.
T = Trace of Precipitation, MM = Missing Value Source: Averaged Metar Reports

Daily Weather History Graph

Daily Weather History Graph

Search for Another Location

Airport or City:

Trip Planner

Search our weather history database for the weather conditions in past years. The results will help you decide how hot, cold, wet, or windy it might be!

Date:

Astronomy

Nov. 30, 2012 Rise Set
Actual Time 7:30 AM CET 5:00 PM CET
Civil Twilight 7:00 AM CET 5:30 PM CET
Nautical Twilight 6:26 AM CET 6:04 PM CET
Astronomical Twilight 5:53 AM CET 6:37 PM CET
Moon 6:41 PM CET (11/30) 8:50 AM CET (11/30)
Length of Visible Light 10h 30m
Length of Day
9h 30m
Full, 97% of the Moon is Illuminated
Nov 30
Full
Dec 6
Last Quarter
Dec 13
New
Dec 20
First Quarter
Dec 28
Full

Hourly Weather History & Observations

Time (CET) Temp. Dew Point Humidity Pressure Visibility Wind Dir Wind Speed Gust Speed Precip Events Conditions
12:20 AM 51.8 °F 37.4 °F 58% 29.50 in 6.2 mi WNW 15.0 mph 33.4 mph N/A   Scattered Clouds
12:50 AM 51.8 °F 37.4 °F 58% 29.50 in 6.2 mi West 11.5 mph - N/A   Mostly Cloudy
1:20 AM 51.8 °F 35.6 °F 54% 29.50 in 6.2 mi WNW 13.8 mph - N/A   Mostly Cloudy
1:50 AM 51.8 °F 35.6 °F 54% 29.50 in 6.2 mi WNW 13.8 mph - N/A   Mostly Cloudy
2:20 AM 51.8 °F 41.0 °F 67% 29.50 in 6.2 mi WNW 12.7 mph - N/A   Mostly Cloudy
2:50 AM 50.0 °F 39.2 °F 66% 29.50 in 6.2 mi WNW 11.5 mph - N/A   Mostly Cloudy
3:20 AM 50.0 °F 37.4 °F 62% 29.50 in 6.2 mi West 12.7 mph 24.2 mph N/A   Mostly Cloudy
3:50 AM 50.0 °F 41.0 °F 71% 29.50 in 6.2 mi West 11.5 mph - N/A   Mostly Cloudy
4:20 AM 50.0 °F 37.4 °F 62% 29.47 in 6.2 mi West 16.1 mph 27.6 mph N/A   Mostly Cloudy
4:50 AM 50.0 °F 35.6 °F 58% 29.50 in 6.2 mi West 10.4 mph - N/A   Mostly Cloudy
5:20 AM 50.0 °F 33.8 °F 54% 29.50 in 6.2 mi West 11.5 mph - N/A   Mostly Cloudy
5:50 AM 50.0 °F 33.8 °F 54% 29.50 in 6.2 mi West 12.7 mph - N/A   Mostly Cloudy
6:20 AM 50.0 °F 35.6 °F 58% 29.50 in 6.2 mi West 11.5 mph - N/A   Mostly Cloudy
6:50 AM 51.8 °F 35.6 °F 54% 29.50 in 6.2 mi West 13.8 mph - N/A   Mostly Cloudy
7:20 AM 51.8 °F 35.6 °F 54% 29.50 in 6.2 mi WSW 12.7 mph - N/A   Mostly Cloudy
7:50 AM 51.8 °F 35.6 °F 54% 29.50 in 6.2 mi WSW 15.0 mph - N/A   Mostly Cloudy
8:20 AM 51.8 °F 35.6 °F 54% 29.50 in 6.2 mi West 11.5 mph - N/A   Scattered Clouds
8:50 AM 53.6 °F 35.6 °F 51% 29.50 in 6.2 mi WSW 13.8 mph - N/A   Scattered Clouds
9:20 AM 51.8 °F 39.2 °F 62% 29.53 in 6.2 mi West 9.2 mph - N/A   Scattered Clouds
9:50 AM 51.8 °F 35.6 °F 54% 29.53 in 6.2 mi West 13.8 mph - N/A   Scattered Clouds
10:20 AM 53.6 °F 35.6 °F 51% 29.53 in 6.2 mi West 16.1 mph - N/A   Scattered Clouds
10:50 AM 53.6 °F 35.6 °F 51% 29.56 in 6.2 mi WSW 16.1 mph - N/A   Scattered Clouds
11:20 AM 53.6 °F 37.4 °F 54% 29.56 in 6.2 mi WSW 13.8 mph - N/A   Scattered Clouds
11:50 AM 53.6 °F 35.6 °F 51% 29.56 in 6.2 mi WSW 16.1 mph - N/A   Scattered Clouds
12:20 PM 53.6 °F 33.8 °F 47% 29.53 in 6.2 mi West 15.0 mph - N/A   Scattered Clouds
12:50 PM 53.6 °F 33.8 °F 47% 29.53 in 6.2 mi WSW 17.3 mph - N/A   Scattered Clouds
1:20 PM 53.6 °F 37.4 °F 54% 29.53 in 6.2 mi WSW 15.0 mph - N/A   Scattered Clouds
1:50 PM 53.6 °F 33.8 °F 47% 29.53 in 6.2 mi WSW 16.1 mph - N/A   Scattered Clouds
2:20 PM 53.6 °F 35.6 °F 51% 29.53 in 6.2 mi WSW 15.0 mph - N/A   Scattered Clouds
2:50 PM 53.6 °F 37.4 °F 54% 29.53 in 6.2 mi WSW 15.0 mph - N/A   Scattered Clouds
3:20 PM 53.6 °F 35.6 °F 51% 29.53 in 6.2 mi WSW 15.0 mph - N/A   Scattered Clouds
3:50 PM 51.8 °F 35.6 °F 54% 29.53 in 6.2 mi WSW 17.3 mph - N/A   Scattered Clouds
4:20 PM 51.8 °F 37.4 °F 58% 29.56 in 6.2 mi WSW 13.8 mph 26.5 mph N/A   Scattered Clouds
4:50 PM 51.8 °F 33.8 °F 50% 29.56 in 6.2 mi WSW 16.1 mph - N/A   Scattered Clouds
5:20 PM 51.8 °F 35.6 °F 54% 29.56 in 6.2 mi WSW 13.8 mph - N/A   Scattered Clouds
5:50 PM 51.8 °F 35.6 °F 54% 29.56 in 6.2 mi WSW 13.8 mph - N/A   Scattered Clouds
6:20 PM 51.8 °F 37.4 °F 58% 29.56 in 6.2 mi WSW 16.1 mph 28.8 mph N/A   Scattered Clouds
6:50 PM 51.8 °F 37.4 °F 58% 29.59 in 6.2 mi WSW 15.0 mph - N/A   Scattered Clouds
7:20 PM 51.8 °F 39.2 °F 62% 29.59 in 6.2 mi WSW 15.0 mph - N/A   Scattered Clouds
7:50 PM 51.8 °F 37.4 °F 58% 29.59 in 6.2 mi WSW 15.0 mph 27.6 mph N/A   Scattered Clouds
8:20 PM 51.8 °F 35.6 °F 54% 29.62 in 6.2 mi WSW 13.8 mph - N/A   Scattered Clouds
8:50 PM 51.8 °F 39.2 °F 62% 29.62 in 6.2 mi WSW 11.5 mph - N/A   Scattered Clouds
9:20 PM 51.8 °F 39.2 °F 62% 29.62 in 6.2 mi WSW 12.7 mph - N/A   Scattered Clouds
9:50 PM 53.6 °F 39.2 °F 58% 29.62 in 6.2 mi WSW 15.0 mph 26.5 mph N/A   Scattered Clouds
10:20 PM 53.6 °F 37.4 °F 54% 29.62 in 6.2 mi WSW 13.8 mph - N/A   Scattered Clouds
10:50 PM 51.8 °F 39.2 °F 62% 29.65 in 6.2 mi WSW 13.8 mph - N/A   Scattered Clouds
11:20 PM 51.8 °F 39.2 °F 62% 29.65 in 6.2 mi WSW 12.7 mph - N/A   Scattered Clouds
11:50 PM 51.8 °F 39.2 °F 62% 29.65 in 6.2 mi WSW 12.7 mph - N/A   Scattered Clouds